This is the latest recevied weather packets stored in our database for station/object NE8U. If no packets are shown the sender has not sent any weather packets the latest 10 day(s).
| Time | Temp. | Humidity | Pressure | Rain* | Wind** | Luminosity | Snow |
|---|---|---|---|---|---|---|---|
| 1777658685 | 26.67° C | 29% | 1015 hPa | 0 mm | - | 751 W/m² | - |
| 1777658381 | 25.56° C | 28% | 1015.3 hPa | 0 mm | - | 756 W/m² | - |
| 1777658078 | 25.56° C | 30% | 1015.2 hPa | 0 mm | - | 731 W/m² | - |
| 1777657775 | 26.11° C | 31% | 1015.1 hPa | 0 mm | - | 727 W/m² | - |
| 1777657472 | 25.56° C | 31% | 1015.1 hPa | 0 mm | - | 761 W/m² | - |
| 1777657170 | 25° C | 32% | 1015.2 hPa | 0 mm | - | 792 W/m² | - |
| 1777656867 | 25.56° C | 31% | 1015.2 hPa | 0 mm | - | 812 W/m² | - |
| 1777656563 | 25.56° C | 32% | 1015.1 hPa | 0 mm | - | 813 W/m² | - |
| 1777656259 | 25° C | 32% | 1015.3 hPa | 0 mm | - | 794 W/m² | - |
| 1777655954 | 25° C | 33% | 1015.3 hPa | 0 mm | - | 799 W/m² | - |
| 1777655650 | 24.44° C | 35% | 1015.3 hPa | 0 mm | - | 815 W/m² | - |
| 1777655347 | 25° C | 34% | 1015.4 hPa | 0 mm | - | 812 W/m² | - |
| 1777655044 | 25° C | 33% | 1015.3 hPa | 0 mm | - | 822 W/m² | - |
| 1777654742 | 25° C | 34% | 1015.1 hPa | 0 mm | - | 842 W/m² | - |
| 1777654440 | 24.44° C | 34% | 1015.3 hPa | 0 mm | - | 846 W/m² | - |
| 1777654137 | 24.44° C | 37% | 1015.3 hPa | 0 mm | - | 851 W/m² | - |
| 1777653835 | 24.44° C | 37% | 1015.2 hPa | 0 mm | - | 872 W/m² | - |
| 1777653531 | 23.89° C | 36% | 1015.3 hPa | 0 mm | - | 867 W/m² | - |
| 1777653227 | 23.33° C | 38% | 1015.3 hPa | 0 mm | - | 861 W/m² | - |
| 1777652924 | 24.44° C | 37% | 1015.2 hPa | 0 mm | - | 863 W/m² | - |
| 1777652621 | 23.89° C | 37% | 1015.1 hPa | 0 mm | - | 832 W/m² | - |
| 1777652317 | 24.44° C | 37% | 1015.1 hPa | 0 mm | - | 791 W/m² | - |
| 1777652014 | 23.89° C | 36% | 1015.1 hPa | 0 mm | - | 711 W/m² | - |
| 1777651711 | 24.44° C | 38% | 1015.2 hPa | 0 mm | - | 701 W/m² | - |
| 1777651408 | 23.89° C | 39% | 1015.1 hPa | 0 mm | - | 712 W/m² | - |
* Rain latest hour (hover to see other rain measurements)
** Current wind speed in m/s (hover to see current wind gust speed)